THORAD DELTA 1 DEB, 8789

Orbit data source: Space-Track

THORAD DELTA 1 DEB, 8789 is space debris in SSO originally from a launch on Fri, 15 Nov 1974 UTC launched from the Air Force Western Test Range (AFWTR). Debris objects in space refer to the collection of defunct objects orbiting the Earth. Examples of debris include non-operational satellites, rocket bodies, and fragments generated from explosions, collisions, or faulty payload assembly.

Loading next visibility...
Identifier
8789, 1974-089DR
Orbit
SSO
Country
Flag of USUS
Related business
Manufacturer
Unknown
Mission
Spacecraft
Bus & Motor
Unknown
Mass
Unknown
Launch date (UTC)
1974-11-15 (51 years ago)
Launch vehicle
Unknown
Launch site
Air Force Western Test Range (AFWTR)
Object type
Payload
Rocket body
Debris
Shape & HBR
Unknown shape, 0.1 m
Radar Cross Section
Small (<0.1 m²)

Expand to show TLE details & history
Last TLE update: 6 days ago

TLE from 6 days ago
0 THORAD DELTA 1 DEB
1 08789U 74089DR  25283.37005648 -.00000017  00000-0  20939-3 0  9998
2 08789 102.1139 231.6073 0106314 351.3580 138.7202 12.38985388301500
Epoch: 2025-10-10T08:52Z
TLE epoch observation values (Epoch: 2025-10-10T08:52:52.879Z)
Latitude
47.76383°
Longitude
-87.22261°
Altitude
1,581.513 km
Speed
7.054 km/s
True Right ascension
04h 20m 51s
True Declination
47° 36' 37"
Sunlit
Object was in daylight at epoch
Visualization orbit readout
Latitude
Unknown
Longitude
Unknown
Altitude
Unknown
Speed
Unknown
Apparent Right ascension
Unknown
Apparent Declination
Unknown
Sunlit
N/A
Visualization observer readout
Local Sidereal Time
17:40:31
Azimuth
Unknown
Elevation
Unknown
Doppler factor
Unknown
Orbital elements
Apogee altitude
1,592.335 km
Perigee altitude
1,424.644 km
Semi-major axis
7,886.627 km
Eccentricity
0.01063
Inclination
102.1139°
RAAN
231.6073°
Arg. of periapsis
351.358°
True anomaly
139.51596°
Mean anomaly
138.7202°
Eccentric anomaly
139.11887°
Mean motion
3.09889 °/min
Orbital period
116.17 mins
BSTAR
0.00020939
Loading maneuver chart data...
Computing Atmospheric mass density...

Documentation

Showing up to 5 results
|